DW3201 Weather Reports


Display with metric or nautical units.
time (UTC)temp
F
wind
direction
speed
MPH
gust
MPH
rain 1hr
in
rain 24hr
in
rain mn
in
humidity
%
barometer
mb
20260510073058 40 0 0.0 0.0 0.00 0.00 0.00 81 1013.6
20260510071601 41 0 0.0 0.0 0.00 0.00 0.00 79 1013.5
20260510070057 41 0 0.0 0.0 0.00 0.00 0.00 76 1013.4
20260510064609 42 0 0.0 1.0 0.00 0.00 0.00 70 1013.3
20260510063100 43 0 0.0 1.0 0.00 0.00 0.00 66 1013.2
20260510061554 44 0 0.0 1.0 0.00 0.00 0.00 64 1013.2
20260510060058 45 0 0.0 1.0 0.00 0.00 0.00 61 1013.0
20260510054554 46 65 0.0 3.0 0.00 0.00 0.00 60 1012.8
20260510053054 46 34 2.0 7.0 0.00 0.00 0.00 59 1012.8
20260510051602 47 58 4.0 12.0 0.00 0.00 0.00 56 1012.5
20260510050055 49 36 5.0 9.0 0.00 0.00 0.00 51 1012.3
20260510044556 50 82 5.0 10.0 0.00 0.00 0.00 49 1011.7
20260510043101 50 0 0.0 1.0 0.00 0.00 0.00 47 1011.2
20260510041609 50 210 0.0 2.0 0.00 0.00 0.00 46 1011.0
20260510040054 49 177 0.0 1.0 0.00 0.00 0.00 51 1010.8
20260510034559 50 0 0.0 2.0 0.00 0.00 0.00 49 1010.6
20260510033103 51 0 0.0 1.0 0.00 0.00 0.00 49 1010.3
20260510031602 52 0 0.0 1.0 0.00 0.00 0.00 46 1010.2
20260510030105 53 0 0.0 2.0 0.00 0.00 0.00 44 1010.0
20260510024603 53 233 0.0 1.0 0.00 0.00 0.00 44 1009.8
20260510023053 53 249 0.0 4.0 0.00 0.00 0.00 46 1009.5
20260510021553 53 0 0.0 2.0 0.00 0.00 0.00 51 1009.3
20260510020054 53 0 0.0 1.0 0.00 0.00 0.00 53 1008.9
20260510014554 55 0 0.0 0.0 0.00 0.00 0.00 52 1008.5
20260510013105 56 0 0.0 1.0 0.00 0.00 0.00 46 1008.2
20260510011553 57 0 0.0 1.0 0.00 0.00 0.00 43 1007.8
20260510010105 59 0 0.0 1.0 0.00 0.00 0.00 40 1007.4
20260510004600 60 0 0.0 5.0 0.00 0.00 0.00 38 1007.2
20260510003056 61 0 0.0 4.0 0.00 0.00 0.00 37 1006.9
20260510001552 62 226 3.0 8.0 0.00 0.00 0.00 36 1006.6
20260510000108 63 170 1.0 8.0 0.00 0.00 0.00 36 1006.3
20260509234604 63 0 1.0 7.0 0.00 0.00 0.00 37 1006.1
20260509233053 64 295 2.0 7.0 0.00 0.00 0.00 36 1006.1
20260509231557 65 48 2.0 6.0 0.00 0.00 0.00 36 1005.9
20260509230053 65 275 1.0 9.0 0.00 0.00 0.00 36 1005.7
20260509224554 65 302 1.0 5.0 0.00 0.00 0.00 35 1005.5
20260509223051 66 271 1.0 10.0 0.00 0.00 0.00 35 1005.4
20260509221608 66 347 4.0 9.0 0.00 0.00 0.00 33 1005.0
20260509214551 66 273 2.0 11.0 0.00 0.00 0.00 34 1004.6
20260509213053 67 310 3.0 10.0 0.00 0.00 0.00 35 1004.3
20260509211554 67 348 3.0 11.0 0.00 0.00 0.00 35 1004.0
20260509210059 67 39 4.0 11.0 0.00 0.00 0.00 36 1004.1
20260509204559 67 292 1.0 11.0 0.00 0.00 0.00 37 1003.8
20260509203055 68 257 4.0 10.0 0.00 0.00 0.00 37 1003.5
20260509201558 69 291 5.0 12.0 0.00 0.00 0.00 35 1003.5
20260509200105 68 302 3.0 10.0 0.00 0.00 0.00 35 1003.2
20260509194556 69 276 10.0 19.0 0.00 0.00 0.00 31 1002.9
20260509193108 69 278 12.0 21.0 0.00 0.00 0.00 31 1002.7
20260509191612 69 251 10.0 23.0 0.00 0.00 0.00 32 1002.6
20260509190112 69 274 7.0 16.0 0.00 0.00 0.00 35 1002.4
20260509184555 70 277 7.0 18.0 0.00 0.00 0.00 33 1002.2
20260509183054 69 285 4.0 18.0 0.00 0.00 0.00 35 1002.0
20260509181555 69 297 4.0 14.0 0.00 0.00 0.00 33 1002.0
20260509180054 68 262 9.0 14.0 0.00 0.00 0.00 34 1001.9
20260509174554 68 269 9.0 15.0 0.00 0.00 0.00 33 1001.9
20260509173104 68 252 7.0 14.0 0.00 0.00 0.00 33 1002.1
20260509171606 67 315 8.0 20.0 0.00 0.00 0.00 34 1002.2
20260509170055 66 285 11.0 25.0 0.00 0.00 0.00 34 1002.3
20260509164556 64 253 8.0 14.0 0.00 0.00 0.00 37 1002.5
20260509163059 63 276 4.0 13.0 0.00 0.00 0.00 38 1002.7
20260509161553 62 287 5.0 11.0 0.00 0.00 0.00 38 1002.8
20260509160054 63 292 3.0 11.0 0.00 0.00 0.00 38 1003.1
20260509154552 62 276 3.0 7.0 0.00 0.00 0.00 37 1003.1
20260509153049 63 250 6.0 14.0 0.00 0.00 0.00 37 1003.0
20260509151558 63 249 5.0 9.0 0.00 0.00 0.00 42 1002.9
20260509150054 61 285 3.0 9.0 0.00 0.00 0.00 45 1002.5
20260509144553 61 273 4.0 7.0 0.00 0.00 0.00 47 1002.1
20260509143049 61 285 4.0 6.0 0.00 0.00 0.00 49 1002.0
20260509141554 60 271 3.0 6.0 0.00 0.00 0.00 53 1002.2
20260509140054 60 277 3.0 6.0 0.00 0.00 0.00 53 1002.0
20260509134601 60 257 3.0 9.0 0.00 0.00 0.00 54 1001.8
20260509133053 59 270 6.0 10.0 0.00 0.00 0.00 55 1001.9
20260509131609 58 281 5.0 10.0 0.00 0.00 0.00 60 1002.0
20260509130104 58 280 6.0 13.0 0.00 0.00 0.00 61 1001.8
20260509124551 58 269 2.0 9.0 0.00 0.00 0.00 66 1001.6
20260509123101 57 240 3.0 8.0 0.00 0.00 0.00 69 1001.6
20260509121552 56 229 3.0 8.0 0.00 0.00 0.00 75 1001.6
20260509120051 55 285 4.0 7.0 0.00 0.00 0.00 78 1001.7
20260509114608 54 285 4.0 7.0 0.00 0.00 0.00 80 1001.5
20260509113105 53 253 4.0 6.0 0.00 0.00 0.00 82 1001.4
20260509111552 53 256 3.0 6.0 0.00 0.00 0.00 83 1001.2
20260509110104 53 232 4.0 9.0 0.00 0.00 0.00 82 1001.3
20260509104600 53 266 3.0 9.0 0.00 0.00 0.00 82 1000.9
20260509103054 53 252 4.0 10.0 0.00 0.00 0.00 81 1000.7
20260509101552 54 235 4.0 8.0 0.00 0.00 0.00 81 1000.5
20260509100054 54 250 6.0 10.0 0.00 0.00 0.00 80 1000.7
20260509094610 54 237 4.0 11.0 0.00 0.00 0.00 79 1000.8
20260509093054 54 266 4.0 9.0 0.00 0.00 0.00 79 1001.2
20260509091556 54 259 5.0 10.0 0.00 0.00 0.00 78 1001.2
20260509084600 54 218 6.0 13.0 0.00 0.00 0.00 78 1001.0
20260509083052 54 255 7.0 13.0 0.00 0.00 0.00 78 1000.9
20260509081554 54 262 5.0 10.0 0.00 0.00 0.00 78 1001.1
20260509080053 55 243 7.0 11.0 0.00 0.00 0.00 77 1001.1
20260509074553 55 257 5.0 11.0 0.00 0.00 0.00 76 1001.2